Regional Weather Roundup
Issued by NWS

Home | Current Version | Previous Version | Text Only | Print | Product List | Glossary Off
Versions: 1 2 3 4 5 6 7 8 9 10 11 12 13 14 15 16 17 18 19 20 21 22 23 24 25 26 27 28 29 30 31 32 33 34 35 36 37 38 39 40 41 42 43 44 45 46 47 48 49 50

000
ASUS43 KTOP 181308
RWRKS

WEATHER ROUNDUP FOR KANSAS
NATIONAL WEATHER SERVICE GOODLAND KS
800 AM CDT THU SEP 18 2014

NOTE:  "FAIR" INDICATES FEW OR NO CLOUDS BELOW 12,000 FEET WITH NO
SIGNIFICANT WEATHER AND/OR OBSTRUCTIONS TO VISIBILITY.

KSZ001>006-013>018-027>032-041>047-181400-
NORTHWEST KANSAS

CITY           SKY/WX    TMP DP  RH WIND       PRES   REMARKS
GOODLAND       CLOUDY    63  63 100 E6        29.99R FOG
HAYS           CLOUDY    64  57  77 E13       29.94R
HILL CITY      CLOUDY    62  61  96 E12       29.95R FOG
RUSSELL        CLOUDY    64  62  93 E9        29.92R
$$

KSZ061>065-074>080-084>089-181400-
SOUTHWEST KANSAS

CITY           SKY/WX    TMP DP  RH WIND       PRES   REMARKS
DODGE CITY     CLEAR     58  55  90 S8        29.94R
ELKHART          N/A     62  55  77 W10         N/A
GARDEN CITY    CLEAR     56  55  97 CALM      29.93R
GREAT BEND     CLOUDY    68  64  88 E9        29.93R
LIBERAL        CLEAR     61  54  77 SW5       29.96R
PRATT          DRZL/FOG  63  63 100 SE6       29.94R VSB<1/4
$$

KSZ066>073-081>083-090>101-181400-
SOUTHEAST KANSAS

CITY           SKY/WX    TMP DP  RH WIND       PRES   REMARKS
CHANUTE        LGT RAIN  66  62  87 S25G33    29.92F
COFFEYVILLE    LGT RAIN  65  63  93 SE8       29.98F
HUTCHINSON     CLOUDY    71  67  87 SE14      29.92R FOG
MEDICINE LODGE   N/A     66  63  90 SE7       29.92R
NEWTON         CLOUDY    68  61  77 S20G26    29.96R
PARSONS        CLOUDY    66  64  93 S8        29.95F
WICHITA INTL   MOCLDY    71  65  81 SE21G31   29.93R
WICHITA JABRA  CLOUDY    68  63  84 SE16      29.95R
WICHITA MCCONL PTCLDY    68  66  94 SE20G26   29.95R
WINFIELD       CLOUDY    66  62  87 SE18G28   29.98R
$$

KSZ007>012-019>026-033>040-048>060-102>105-181400-
NORTHEAST KANSAS

CITY           SKY/WX    TMP DP  RH WIND       PRES   REMARKS
CONCORDIA      CLOUDY    63  63 100 E10       29.98R FOG
EMPORIA        TSTM      64  63  96 NE8       29.94S
LAWRENCE       CLOUDY    62  60  93 E9        29.99R FOG
MANHATTAN      CLOUDY    66  63  90 E9        29.97R
MARYSVILLE     PTCLDY    61  61 100 SE3       30.00R FOG
OLATHE IND     CLOUDY    62  61  96 E9        29.99S FOG
OLATHE EXE     CLOUDY    60  60 100 E9        29.98F FOG
SALINA         CLOUDY    67  63  87 E12       29.94R
TOPEKA BILLARD CLOUDY    64  63  96 E9        29.98R FOG
TOPEKA FORBES  CLOUDY    64  62  93 E7        29.99R FOG
$$


USA.gov is the U.S. government's official web portal to all federal, state and local government web resources and services.